TimeCDT,TemperatureF,Dew PointF,Humidity,Sea Level PressureIn,VisibilityMPH,Wind Direction,Wind SpeedMPH,Gust SpeedMPH,PrecipitationIn,Events,Conditions,WindDirDegrees,DateUTC
12:52 AM,51.1,50.0,96,30.11,10.0,SE,4.6,-,N/A,,Clear,130,2013-06-18 05:52:00
1:38 AM,53.1,52.0,96,30.09,1.8,Calm,Calm,-,N/A,,Clear,0,2013-06-18 06:38:00
1:45 AM,52.0,52.0,100,30.09,0.5,Calm,Calm,-,N/A,Fog,Fog,0,2013-06-18 06:45:00
1:52 AM,52.0,52.0,100,30.10,0.8,WNW,4.6,-,N/A,,Mist,290,2013-06-18 06:52:00
1:55 AM,53.1,52.0,96,30.10,1.2,NW,3.5,-,N/A,,Partly Cloudy,310,2013-06-18 06:55:00
2:00 AM,53.1,52.0,96,30.09,4.0,Calm,Calm,-,N/A,,Partly Cloudy,0,2013-06-18 07:00:00
2:18 AM,51.1,50.0,96,30.09,0.8,Calm,Calm,-,N/A,,Mist,0,2013-06-18 07:18:00
2:21 AM,51.1,50.0,96,30.09,0.5,Calm,Calm,-,N/A,Fog,Fog,0,2013-06-18 07:21:00
2:31 AM,50.0,48.9,96,30.10,0.2,Calm,Calm,-,N/A,Fog,Fog,0,2013-06-18 07:31:00
2:41 AM,51.1,51.1,100,30.10,1.0,Calm,Calm,-,N/A,,Mist,0,2013-06-18 07:41:00
2:43 AM,50.0,50.0,100,30.10,3.0,Calm,Calm,-,N/A,,Partly Cloudy,0,2013-06-18 07:43:00
2:52 AM,48.0,48.0,100,30.10,2.0,ESE,3.5,-,N/A,,Clear,110,2013-06-18 07:52:00
2:59 AM,48.9,48.9,100,30.10,1.2,ESE,5.8,-,N/A,,Partly Cloudy,120,2013-06-18 07:59:00
3:02 AM,48.9,48.9,100,30.10,0.8,ESE,4.6,-,N/A,,Mist,120,2013-06-18 08:02:00
3:08 AM,48.9,48.9,100,30.11,0.5,Calm,Calm,-,N/A,Fog,Fog,0,2013-06-18 08:08:00
3:26 AM,50.0,50.0,100,30.11,1.0,West,4.6,-,N/A,,Mist,280,2013-06-18 08:26:00
3:29 AM,51.1,50.0,96,30.11,4.0,WNW,4.6,-,N/A,,Mostly Cloudy,290,2013-06-18 08:29:00
3:39 AM,51.1,50.0,96,30.11,10.0,West,4.6,-,N/A,,Scattered Clouds,270,2013-06-18 08:39:00
3:52 AM,52.0,51.1,97,30.11,9.0,NW,3.5,-,N/A,,Clear,310,2013-06-18 08:52:00
4:35 AM,46.9,46.9,100,30.11,2.5,East,5.8,-,N/A,,Partly Cloudy,90,2013-06-18 09:35:00
4:38 AM,46.9,46.9,100,30.11,1.0,East,4.6,-,N/A,,Mist,90,2013-06-18 09:38:00
4:42 AM,46.9,46.9,100,30.10,0.5,East,4.6,-,N/A,Fog,Fog,80,2013-06-18 09:42:00
4:47 AM,48.2,48.2,100,30.10,0.8,ENE,3.5,-,N/A,,Mist,70,2013-06-18 09:47:00
4:52 AM,48.0,48.0,100,30.11,1.0,East,3.5,-,N/A,,Mist,80,2013-06-18 09:52:00
5:03 AM,48.0,48.0,100,30.10,0.8,Calm,Calm,-,N/A,,Mist,0,2013-06-18 10:03:00
5:10 AM,48.9,48.0,97,30.10,1.2,Calm,Calm,-,N/A,,Clear,0,2013-06-18 10:10:00
5:13 AM,48.9,48.0,97,30.10,2.0,Calm,Calm,-,N/A,,Clear,0,2013-06-18 10:13:00
5:21 AM,50.0,48.9,96,30.10,10.0,Calm,Calm,-,N/A,,Clear,0,2013-06-18 10:21:00
5:47 AM,48.2,48.2,100,30.11,7.0,Calm,Calm,-,N/A,,Scattered Clouds,0,2013-06-18 10:47:00
5:52 AM,46.0,46.0,100,30.12,4.0,Calm,Calm,-,N/A,,Mostly Cloudy,0,2013-06-18 10:52:00
5:59 AM,48.0,46.9,96,30.11,1.0,Calm,Calm,-,N/A,,Clear,0,2013-06-18 10:59:00
6:19 AM,46.9,46.9,100,30.11,0.5,ESE,3.5,-,N/A,Fog,Fog,110,2013-06-18 11:19:00
6:35 AM,48.0,46.9,96,30.12,0.5,SSE,4.6,-,N/A,Fog,Fog,160,2013-06-18 11:35:00
6:52 AM,48.0,48.0,100,30.13,0.5,Calm,Calm,-,N/A,Fog,Fog,0,2013-06-18 11:52:00
6:54 AM,48.0,48.0,100,30.11,1.0,Calm,Calm,-,N/A,,Clear,0,2013-06-18 11:54:00
7:46 AM,51.8,51.8,100,30.12,4.0,Calm,Calm,-,N/A,,Clear,0,2013-06-18 12:46:00
7:52 AM,53.1,51.1,93,30.13,4.0,Calm,Calm,-,N/A,,Clear,0,2013-06-18 12:52:00
8:52 AM,57.9,54.0,87,30.12,10.0,ENE,3.5,-,N/A,,Clear,60,2013-06-18 13:52:00
9:52 AM,63.0,57.0,81,30.10,10.0,Calm,Calm,-,N/A,,Clear,0,2013-06-18 14:52:00
10:52 AM,68.0,55.9,65,30.08,10.0,South,6.9,-,N/A,,Clear,170,2013-06-18 15:52:00
11:52 AM,70.0,55.9,61,30.07,10.0,SSE,8.1,-,N/A,,Clear,160,2013-06-18 16:52:00
12:52 PM,72.0,55.9,57,30.06,10.0,Variable,4.6,-,N/A,,Clear,0,2013-06-18 17:52:00
1:52 PM,73.9,54.0,50,30.04,10.0,South,6.9,-,N/A,,Partly Cloudy,180,2013-06-18 18:52:00
2:52 PM,75.9,53.1,45,30.03,10.0,Variable,5.8,-,N/A,,Clear,0,2013-06-18 19:52:00
3:52 PM,75.9,55.9,50,30.01,10.0,ESE,5.8,-,N/A,,Clear,120,2013-06-18 20:52:00
4:52 PM,77.0,55.9,48,29.99,10.0,SE,8.1,-,N/A,,Scattered Clouds,130,2013-06-18 21:52:00
5:52 PM,77.0,55.0,47,29.97,10.0,ESE,4.6,-,N/A,,Partly Cloudy,110,2013-06-18 22:52:00
6:52 PM,77.0,55.9,48,29.95,10.0,SSE,9.2,-,N/A,,Clear,160,2013-06-18 23:52:00
7:52 PM,75.0,55.9,51,29.95,10.0,SE,6.9,-,N/A,,Clear,140,2013-06-19 00:52:00
8:52 PM,71.1,57.9,63,29.94,10.0,ESE,5.8,-,N/A,,Clear,120,2013-06-19 01:52:00
9:52 PM,66.9,57.0,70,29.93,10.0,East,6.9,-,N/A,,Clear,80,2013-06-19 02:52:00
10:52 PM,63.0,57.0,81,29.94,10.0,East,5.8,-,N/A,,Clear,80,2013-06-19 03:52:00
11:52 PM,63.0,57.0,81,29.94,10.0,East,4.6,-,N/A,,Clear,80,2013-06-19 04:52:00